Regional Weather Roundup
Issued by NWS

Home | Current Version | Previous Version | Text Only | Print | Product List | Glossary On
Versions: 1 2 3 4 5 6 7 8 9 10 11 12 13 14 15 16 17 18 19 20 21 22 23 24 25 26 27 28 29 30
000
ASUS45 KGTF 040110
RWRMT
MONTANA HOURLY WEATHER ROUNDUP
NATIONAL WEATHER SERVICE GREAT FALLS MT
700 PM MDT SUN MAY 03 2015

NOTE: "FAIR" INDICATES FEW OR NO CLOUDS BELOW 12000 FEET WITH NO
SIGNIFICANT WEATHER AND/OR OBSTRUCTIONS TO VISIBILITY.

MTZ001>007-043-040200-
WEST OF THE DIVIDE

CITY           SKY/WX    TMP DP  RH WIND       PRES   REMARKS
KALISPELL      CLEAR     65  22  19 S6        29.91S
MISSOULA       SUNNY     66  20  17 N16       29.88S
BUTTE          PTSUNNY   60  27  28 SE13      29.93S
DEER LODGE       N/A     64  18  16 NW5       29.94S
EUREKA           N/A     66  18  15 NW5       29.91F
HAMILTON         N/A     68  23  18 N8        29.86S
LIBBY            N/A     68  21  17 W3        29.89F
$$

MTZ008-052>055-040200-
SOUTHWEST MONTANA

CITY           SKY/WX    TMP DP  RH WIND       PRES   REMARKS
BOZEMAN        PTSUNNY   62  37  39 CALM      29.92S
DILLON         CLOUDY    65  23  20 SW3       29.89S
$$

MTZ009-010-012-014-046-048-049-054-040200-
EAST SLOPES AND CENTRAL MONTANA

CITY           SKY/WX    TMP DP  RH WIND       PRES   REMARKS
CUT BANK       SUNNY     62  18  18 NE7       29.94F
GREAT FALLS    SUNNY     63  20  19 NE10      29.93S
MALMSTROM AFB  SUNNY     62  23  22 NE14      29.94S
HELENA         MOSUNNY   68  22  17 E9        29.89S
$$

MTZ011-013-016-021-045-047-050-051-040200-
NORTH CENTRAL MONTANA

CITY           SKY/WX    TMP DP  RH WIND       PRES   REMARKS
HAVRE          SUNNY     61  27  27 E14       29.98F
LEWISTOWN      CLOUDY    61  33  35 E12       29.98R
CHINOOK          N/A     61  27  27 E7G16     30.00S VSB 1
FORT BENTON      N/A     64  28  25 NE9       29.95S
$$

MTZ017>020-022>042-056>058-061-062-040200-
EASTERN PLAINS

CITY           SKY/WX    TMP DP  RH WIND       PRES   REMARKS
BAKER          PTSUNNY   58  30  34 NE7       30.04S
BILLINGS       PTSUNNY   61  35  37 NE13      29.98R
GLASGOW        SUNNY     60  24  25 NW6       30.03S
JORDAN           N/A     62  26  25 E12       30.01S
LIVINGSTON     MOSUNNY   61  32  33 E18       29.94F
MILES CITY     CLOUDY    62  30  29 NE10      30.01R
SIDNEY         MOSUNNY   61  23  23 NW7       30.04S
WOLF POINT     SUNNY     63  26  24 VRB6      30.04R
BIG TIMBER       N/A     57  32  38 E9        29.98S
FORSYTH          N/A     63  30  29 E8        30.00R
PLENTYWOOD       N/A     57  21  24 N10       30.05R
POPLAR           N/A     61  23  23 N7        30.05R
$$

REGIONAL REPORTS...DAKOTAS

CITY           SKY/WX    TMP DP  RH WIND       PRES   REMARKS
WILLISTON      SUNNY     61  19  19 N12       30.04R
MINOT          CLEAR     59  23  25 NW13      30.01R
DICKINSON      MOCLDY    57  26  30 N7        30.03R
BEACH          FAIR      55  27  33 N6        30.06R
CROSBY         FAIR      57  21  24 NW12      30.05R
WATFORD CITY   FAIR      59  21  23 N12       30.02R
BISMARCK       CLEAR     62  21  20 NW13      30.02S
GRAND FORKS    PTCLDY    63  28  26 NW8       29.94R
FARGO          MOCLDY    65  23  20 NW12      29.93R
BUFFALO SD       N/A     58  35  42 SE9       29.98R
RAPID CITY     MOCLDY    63  34  33 NE13      30.03R
$$

REGIONAL REPORTS...WYOMING/IDAHO/WASHINGTON

CITY           SKY/WX    TMP DP  RH WIND       PRES   REMARKS
GILLETTE       PTSUNNY   60  38  43 E20       30.00R
SHERIDAN       CLOUDY    60  43  53 E6        29.99S
BUFFALO WY     CLOUDY    55  44  66 E6        30.03R
CODY           CLOUDY    55  34  44 NW8       29.99S
YELLOWSTONE LA   N/A     39  36  89 VRB6      30.11R
IDAHO FALLS    LGT RAIN  65  41  41 NE14      29.90R
SALMON         PTSUNNY   70  27  19 E9        29.83S
BOISE          SUNNY     78  27  15 N15       29.78F
SPOKANE        MOSUNNY   68  21  16 N8        29.89F
$$

REGIONAL REPORTS...ALBERTA

CITY           SKY/WX    TMP DP  RH WIND       PRES   REMARKS
EDMONTON       MOSUNNY   50  34  53 E13       29.99S
CALGARY        MOSUNNY   55  21  26 SE14G20   29.96F
LETHBRIDGE     MOSUNNY   57  27  30 E10       29.96F
MEDICINE HAT   MOSUNNY   55  27  33 N7        30.02S
$$

REGIONAL REPORTS...SASKATCHEWAN

CITY           SKY/WX    TMP DP  RH WIND       PRES   REMARKS
SWIFT CURRENT  MOSUNNY   52  23  32 NW12      30.04S
REGINA         MOSUNNY   50  32  50 N14       30.05R
SASKATOON      MOSUNNY   54  30  40 W10       30.04S
$$



USA.gov is the U.S. government's official web portal to all federal, state and local government web resources and services.